Oxford, CT

8:10 PM EDT on April 19, 2018 (GMT -0400)
Waterbury-Oxford

Weather History for KOXC - July, 2013

Change the Weather History Date:

Tuesday, July 2, 2013

  Actual Average Record
Temperature  
Mean Temperature 76 °F -  
Max Temperature 80 °F 77 °F 89 °F (2002)
Min Temperature 71 °F 58 °F 46 °F (2007)
Cooling Degree Days 10    
Growing Degree Days 26 (Base 50)    
Moisture  
Dew Point 69 °F    
Average Humidity 88    
Maximum Humidity 94    
Minimum Humidity 74    
Precipitation  
Precipitation 0.00 in - - ()
Sea Level Pressure  
Sea Level Pressure 30.17 in    
Wind  
Wind Speed 8 mph (SSW)    
Max Wind Speed 12 mph    
Max Gust Speed 17 mph    
Visibility 7 miles    
Events Fog    
Averages and records for this station are not official NWS values.
T = Trace of Precipitation, MM = Missing Value Source: NWS Daily Summary

Daily Weather History Graph

Daily Weather History Graph

Search for Another Location

Airport or City:

Astronomy

Jul. 02, 2013 Rise Set
Actual Time 5:23 AM EDT 8:29 PM EDT
Civil Twilight 4:49 AM EDT 9:03 PM EDT
Nautical Twilight 4:06 AM EDT 9:46 PM EDT
Astronomical Twilight 3:14 AM EDT 10:38 PM EDT
Moon 1:26 AM EDT (7/2) 3:39 PM EDT (7/2)
Length of Visible Light 16h 14m
Length of Day
15h 06m
Waning Crescent, 26% of the Moon is Illuminated
Jul 2
Waning Crescent
Jul 8
New
Jul 15
First Quarter
Jul 22
Full
Jul 29
Last Quarter

Hourly Weather History & Observations

Time (EDT) Temp. Heat Index Dew Point Humidity Pressure Visibility Wind Dir Wind Speed Gust Speed Precip Events Conditions
12:15 AM 71.6 °F - 68.0 °F 88% 30.12 in 4.0 mi SSW 9.2 mph - N/A   Overcast
12:35 AM 71.6 °F - 68.0 °F 88% 30.12 in 1.8 mi SSW 6.9 mph - N/A   Overcast
12:55 AM 71.6 °F - 69.8 °F 94% 30.12 in 2.0 mi SSW 6.9 mph - N/A   Overcast
1:15 AM 71.6 °F - 69.8 °F 94% 30.12 in 2.5 mi South 9.2 mph - N/A   Overcast
1:35 AM 71.6 °F - 69.8 °F 94% 30.12 in 4.0 mi South 8.1 mph - N/A   Overcast
1:55 AM 71.6 °F - 68.0 °F 88% 30.12 in 2.5 mi South 10.4 mph - N/A   Overcast
2:15 AM 71.6 °F - 68.0 °F 88% 30.12 in 3.0 mi South 8.1 mph - N/A   Overcast
2:35 AM 71.6 °F - 68.0 °F 88% 30.12 in 4.0 mi South 4.6 mph - N/A   Overcast
2:55 AM 71.6 °F - 68.0 °F 88% 30.12 in 5.0 mi SSW 5.8 mph - N/A   Overcast
3:15 AM 71.6 °F - 68.0 °F 88% 30.12 in 6.0 mi South 5.8 mph - N/A   Overcast
3:35 AM 71.6 °F - 68.0 °F 88% 30.13 in 5.0 mi South 8.1 mph - N/A   Overcast
3:55 AM 71.6 °F - 68.0 °F 88% 30.13 in 5.0 mi South 4.6 mph - N/A   Overcast
4:15 AM 71.6 °F - 69.8 °F 94% 30.13 in 8.0 mi South 6.9 mph - N/A   Overcast
4:35 AM 71.6 °F - 68.0 °F 88% 30.13 in 10.0 mi South 9.2 mph - N/A   Overcast
4:55 AM 71.6 °F - 68.0 °F 88% 30.13 in 10.0 mi South 9.2 mph - N/A   Overcast
5:15 AM 71.6 °F - 68.0 °F 88% 30.13 in 9.0 mi South 9.2 mph - N/A   Overcast
5:35 AM 71.6 °F - 68.0 °F 88% 30.15 in 7.0 mi SSW 6.9 mph - N/A   Overcast
6:50 AM 71.6 °F - 68.0 °F 88% 30.15 in 1.0 mi SW 5.8 mph - N/A   Overcast
7:45 AM 71.6 °F - 69.8 °F 94% 30.17 in 0.5 mi South 6.9 mph - N/A Fog Fog
8:45 AM 71.6 °F - 69.8 °F 94% 30.18 in 0.5 mi SSW 3.5 mph - N/A Fog Fog
10:45 AM 73.4 °F - 69.8 °F 88% 30.19 in 6.0 mi SSW 5.8 mph - N/A   Overcast
11:45 AM 73.4 °F - 69.8 °F 88% 30.20 in 6.0 mi SSW 9.2 mph - N/A   Overcast
12:45 PM 75.2 °F - 69.8 °F 83% 30.20 in 8.0 mi SSW 9.2 mph - N/A   Overcast
1:05 PM 75.2 °F - 71.6 °F 89% 30.20 in 10.0 mi SSW 9.2 mph - N/A   Overcast
1:45 PM 77.0 °F - 69.8 °F 78% 30.20 in 10.0 mi SW 9.2 mph - N/A   Overcast
2:45 PM 78.8 °F - 71.6 °F 78% 30.18 in 10.0 mi WSW 9.2 mph - N/A   Mostly Cloudy
3:45 PM 80.6 °F 84.6 °F 71.6 °F 74% 30.17 in 10.0 mi SSW 11.5 mph 17.3 mph N/A   Mostly Cloudy
4:45 PM 80.6 °F 84.6 °F 71.6 °F 74% 30.16 in 10.0 mi SSW 9.2 mph - N/A   Mostly Cloudy
5:55 PM 77.0 °F - 71.6 °F 83% 30.17 in 10.0 mi SSW 8.1 mph - N/A   Mostly Cloudy
6:45 PM 75.2 °F - 69.8 °F 83% 30.19 in 10.0 mi South 9.2 mph - N/A   Mostly Cloudy
7:55 PM 73.4 °F - 69.8 °F 88% 30.20 in 10.0 mi South 9.2 mph - N/A   Scattered Clouds
8:45 PM 73.4 °F - 69.8 °F 88% 30.21 in 10.0 mi South 6.9 mph - N/A   Overcast
9:15 PM 73.4 °F - 69.8 °F 88% 30.22 in 10.0 mi South 5.8 mph - N/A   Overcast
9:35 PM 73.4 °F - 69.8 °F 88% 30.22 in 10.0 mi South 8.1 mph - N/A   Overcast
9:55 PM 73.4 °F - 69.8 °F 88% 30.23 in 10.0 mi SSW 6.9 mph - N/A   Mostly Cloudy
10:15 PM 73.4 °F - 69.8 °F 88% 30.23 in 10.0 mi SSW 6.9 mph - N/A   Overcast
10:35 PM 73.4 °F - 69.8 °F 88% 30.22 in 10.0 mi SSW 5.8 mph - N/A   Overcast
10:55 PM 71.6 °F - 69.8 °F 94% 30.23 in 10.0 mi SW 3.5 mph - N/A   Overcast
11:15 PM 71.6 °F - 69.8 °F 94% 30.23 in 10.0 mi SSW 4.6 mph - N/A   Overcast
11:35 PM 71.6 °F - 69.8 °F 94% 30.22 in 10.0 mi SSW 5.8 mph - N/A   Overcast
11:55 PM 71.6 °F - 69.8 °F 94% 30.22 in 10.0 mi SW 3.5 mph - N/A   Mostly Cloudy